| time (UTC) | temp F | wind direction | speed MPH | gust MPH | rain 1hr in | rain 24hr in | rain mn in | humidity % | barometer mb |
| 20260906144920 | 64 | 315 | 0.0 | 0.0 | 0.00 | 0.49 | 0.17 | 83 | 1019.5 |
| 20260906144805 | 63 | 315 | 0.0 | 0.0 | 0.00 | 0.49 | 0.17 | 84 | 1019.6 |
| 20260906143804 | 62 | 20 | 1.0 | 2.0 | 0.00 | 0.49 | 0.17 | 86 | 1019.9 |
| 20260906143706 | 62 | 337 | 0.0 | 2.0 | 0.00 | 0.49 | 0.17 | 85 | 1019.8 |
| 20260906142704 | 61 | 337 | 0.0 | 0.0 | 0.00 | 0.49 | 0.17 | 88 | 1019.9 |
| 20260906142605 | 61 | 337 | 0.0 | 0.0 | 0.00 | 0.49 | 0.17 | 88 | 1019.8 |
| 20260906141704 | 60 | 273 | 0.0 | 3.0 | 0.00 | 0.49 | 0.17 | 89 | 1020.0 |
| 20260906140803 | 60 | 337 | 0.0 | 2.0 | 0.00 | 0.49 | 0.17 | 89 | 1019.9 |
| 20260906135804 | 59 | 311 | 1.0 | 4.0 | 0.00 | 0.49 | 0.17 | 90 | 1020.0 |
| 20260906134819 | 59 | 314 | 1.0 | 4.0 | 0.00 | 0.49 | 0.17 | 88 | 1019.9 |
| 20260906133905 | 58 | 337 | 0.0 | 0.0 | 0.00 | 0.49 | 0.17 | 88 | 1019.9 |
| 20260906132905 | 57 | 320 | 2.0 | 3.0 | 0.00 | 0.49 | 0.17 | 86 | 1019.7 |
| 20260906131803 | 57 | 315 | 2.0 | 3.0 | 0.00 | 0.49 | 0.17 | 86 | 1019.9 |
| 20260906130804 | 57 | 315 | 0.0 | 0.0 | 0.00 | 0.49 | 0.17 | 85 | 1020.0 |
| 20260906130705 | 57 | 315 | 0.0 | 0.0 | 0.00 | 0.49 | 0.17 | 85 | 1019.9 |
| 20260906125721 | 57 | 337 | 0.0 | 2.0 | 0.00 | 0.49 | 0.17 | 85 | 1020.2 |
| 20260906123903 | 56 | 337 | 0.0 | 1.0 | 0.00 | 0.49 | 0.17 | 85 | 1020.1 |
| 20260906123804 | 56 | 337 | 1.0 | 2.0 | 0.00 | 0.49 | 0.17 | 85 | 1020.1 |
| 20260906122704 | 56 | 337 | 0.0 | 0.0 | 0.00 | 0.49 | 0.17 | 85 | 1020.0 |
| 20260906122605 | 56 | 337 | 0.0 | 0.0 | 0.00 | 0.49 | 0.17 | 85 | 1020.0 |
| 20260906121703 | 56 | 337 | 0.0 | 0.0 | 0.01 | 0.49 | 0.17 | 84 | 1020.0 |
| 20260906120703 | 56 | 337 | 0.0 | 0.0 | 0.01 | 0.49 | 0.17 | 84 | 1019.9 |
| 20260906115720 | 55 | 337 | 0.0 | 1.0 | 0.01 | 0.49 | 0.17 | 85 | 1019.8 |
| 20260906115622 | 55 | 337 | 1.0 | 2.0 | 0.01 | 0.49 | 0.17 | 85 | 1019.8 |
| 20260906113703 | 55 | 360 | 0.0 | 0.0 | 0.01 | 0.49 | 0.17 | 84 | 1019.6 |
| 20260906112707 | 55 | 360 | 0.0 | 0.0 | 0.01 | 0.49 | 0.17 | 85 | 1019.5 |
| 20260906110705 | 55 | 360 | 0.0 | 0.0 | 0.01 | 0.48 | 0.16 | 85 | 1019.3 |
| 20260906105804 | 55 | 360 | 0.0 | 0.0 | 0.02 | 0.48 | 0.16 | 86 | 1019.2 |
| 20260906104807 | 55 | 360 | 0.0 | 0.0 | 0.02 | 0.48 | 0.16 | 86 | 1019.0 |
| 20260906103903 | 55 | 360 | 0.0 | 0.0 | 0.02 | 0.48 | 0.16 | 85 | 1019.0 |
| 20260906102906 | 55 | 360 | 0.0 | 0.0 | 0.02 | 0.48 | 0.16 | 86 | 1018.8 |
| 20260906101905 | 56 | 360 | 0.0 | 1.0 | 0.02 | 0.48 | 0.16 | 85 | 1018.8 |
| 20260906101806 | 56 | 360 | 1.0 | 2.0 | 0.02 | 0.48 | 0.16 | 85 | 1018.8 |
| 20260906100804 | 56 | 22 | 0.0 | 0.0 | 0.01 | 0.47 | 0.15 | 85 | 1018.7 |
| 20260906095903 | 56 | 22 | 0.0 | 0.0 | 0.00 | 0.46 | 0.14 | 85 | 1018.6 |
| 20260906094903 | 55 | 22 | 0.0 | 0.0 | 0.00 | 0.46 | 0.14 | 86 | 1018.6 |
| 20260906094820 | 55 | 22 | 0.0 | 0.0 | 0.00 | 0.46 | 0.14 | 85 | 1018.6 |
| 20260906093904 | 55 | 22 | 0.0 | 0.0 | 0.01 | 0.46 | 0.14 | 86 | 1018.5 |
| 20260906093805 | 55 | 22 | 0.0 | 0.0 | 0.01 | 0.46 | 0.14 | 85 | 1018.5 |
| 20260906093706 | 55 | 22 | 0.0 | 0.0 | 0.01 | 0.46 | 0.14 | 85 | 1018.5 |
| 20260906092803 | 55 | 22 | 0.0 | 0.0 | 0.01 | 0.46 | 0.14 | 86 | 1018.4 |
| 20260906091902 | 55 | 22 | 0.0 | 0.0 | 0.01 | 0.46 | 0.14 | 85 | 1018.3 |
| 20260906090906 | 55 | 22 | 0.0 | 0.0 | 0.02 | 0.46 | 0.14 | 86 | 1018.0 |
| 20260906085920 | 56 | 22 | 0.0 | 0.0 | 0.02 | 0.46 | 0.14 | 86 | 1018.3 |
| 20260906084904 | 56 | 22 | 0.0 | 0.0 | 0.04 | 0.46 | 0.14 | 86 | 1018.1 |
| 20260906083906 | 56 | 22 | 0.0 | 0.0 | 0.04 | 0.45 | 0.13 | 86 | 1018.2 |
| 20260906082904 | 56 | 22 | 0.0 | 1.0 | 0.05 | 0.45 | 0.13 | 86 | 1018.0 |
| 20260906081904 | 56 | 22 | 0.0 | 0.0 | 0.05 | 0.45 | 0.13 | 86 | 1018.1 |
| 20260906080904 | 56 | 360 | 0.0 | 1.0 | 0.04 | 0.44 | 0.12 | 85 | 1018.2 |
| 20260906075904 | 56 | 360 | 0.0 | 0.0 | 0.05 | 0.44 | 0.12 | 86 | 1018.1 |
| 20260906074103 | 57 | 292 | 0.0 | 0.0 | 0.02 | 0.41 | 0.09 | 86 | 1018.0 |
| 20260906073118 | 57 | 292 | 0.0 | 0.0 | 0.01 | 0.40 | 0.08 | 85 | 1018.0 |
| 20260906072204 | 57 | 292 | 0.0 | 0.0 | 0.01 | 0.40 | 0.08 | 86 | 1017.8 |
| 20260906071204 | 57 | 292 | 0.0 | 0.0 | 0.01 | 0.40 | 0.08 | 85 | 1017.7 |
| 20260906071105 | 57 | 292 | 0.0 | 0.0 | 0.01 | 0.40 | 0.08 | 85 | 1017.7 |
| 20260906070118 | 57 | 292 | 0.0 | 0.0 | 0.00 | 0.39 | 0.07 | 86 | 1017.8 |
| 20260906064206 | 57 | 292 | 0.0 | 0.0 | 0.01 | 0.39 | 0.07 | 86 | 1017.6 |
| 20260906064105 | 57 | 292 | 0.0 | 0.0 | 0.01 | 0.39 | 0.07 | 86 | 1017.4 |
| 20260906063103 | 57 | 292 | 0.0 | 0.0 | 0.01 | 0.39 | 0.07 | 85 | 1017.7 |
| 20260906062104 | 57 | 292 | 0.0 | 0.0 | 0.01 | 0.39 | 0.07 | 85 | 1017.8 |
| 20260906061202 | 57 | 292 | 0.0 | 0.0 | 0.01 | 0.39 | 0.07 | 86 | 1017.7 |
| 20260906060204 | 57 | 292 | 0.0 | 0.0 | 0.01 | 0.39 | 0.07 | 85 | 1017.7 |
| 20260906060121 | 57 | 292 | 0.0 | 0.0 | 0.01 | 0.39 | 0.07 | 85 | 1017.7 |
| 20260906055119 | 57 | 298 | 0.0 | 1.0 | 0.01 | 0.39 | 0.07 | 85 | 1017.8 |
| 20260906054204 | 57 | 337 | 1.0 | 2.0 | 0.01 | 0.38 | 0.06 | 86 | 1017.7 |
| 20260906053120 | 57 | 337 | 0.0 | 0.0 | 0.01 | 0.38 | 0.06 | 86 | 1017.7 |
| 20260906052104 | 57 | 337 | 0.0 | 0.0 | 0.02 | 0.38 | 0.06 | 86 | 1017.8 |
| 20260906051204 | 57 | 337 | 0.0 | 0.0 | 0.03 | 0.38 | 0.06 | 86 | 1017.8 |
| 20260906050204 | 57 | 337 | 0.0 | 0.0 | 0.05 | 0.38 | 0.06 | 85 | 1017.8 |
| 20260906045205 | 57 | 337 | 0.0 | 0.0 | 0.06 | 0.38 | 0.06 | 85 | 1017.7 |
| 20260906044205 | 57 | 337 | 0.0 | 0.0 | 0.05 | 0.37 | 0.05 | 86 | 1017.8 |
| 20260906043205 | 57 | 337 | 0.0 | 0.0 | 0.05 | 0.37 | 0.05 | 85 | 1017.8 |
| 20260906042203 | 58 | 337 | 0.0 | 0.0 | 0.05 | 0.37 | 0.04 | 86 | 1017.9 |
| 20260906042104 | 58 | 337 | 0.0 | 0.0 | 0.04 | 0.36 | 0.04 | 86 | 1017.8 |
| 20260906041204 | 58 | 337 | 0.0 | 0.0 | 0.03 | 0.35 | 0.03 | 86 | 1017.8 |
| 20260906040303 | 57 | 315 | 0.0 | 0.0 | 0.02 | 0.33 | 0.01 | 86 | 1017.7 |
| 20260906035306 | 0 | 0 | 0.0 | 0.0 | 0.01 | 0.32 | 0.00 | 100 | |
| 20260906035204 | 0 | 0 | 0.0 | 0.0 | 0.01 | 0.32 | 0.00 | 100 | |
| 20260906034229 | 57 | 315 | 0.0 | 0.0 | 0.02 | 0.32 | 0.32 | 86 | 1017.6 |
| 20260906034146 | 57 | 315 | 0.0 | 0.0 | 0.02 | 0.32 | 0.32 | 86 | 1017.6 |
| 20260906031228 | 57 | 315 | 0.0 | 0.0 | 0.04 | 0.32 | 0.31 | 87 | 1017.3 |
| 20260906031145 | 58 | 315 | 0.0 | 0.0 | 0.03 | 0.31 | 0.31 | 87 | 1017.4 |
| 20260906031027 | 58 | 315 | 0.0 | 0.0 | 0.03 | 0.31 | 0.31 | 86 | 1017.4 |
| 20260906030028 | 58 | 315 | 0.0 | 0.0 | 0.03 | 0.31 | 0.31 | 87 | 1017.5 |
| 20260906025028 | 58 | 315 | 0.0 | 0.0 | 0.05 | 0.31 | 0.31 | 86 | 1017.6 |
| 20260906024030 | 58 | 315 | 0.0 | 0.0 | 0.04 | 0.30 | 0.30 | 87 | 1017.6 |
| 20260906023028 | 58 | 315 | 0.0 | 0.0 | 0.05 | 0.30 | 0.30 | 87 | 1017.7 |
| 20260906022029 | 58 | 315 | 0.0 | 0.0 | 0.04 | 0.28 | 0.28 | 87 | 1017.6 |
| 20260906021030 | 59 | 346 | 0.0 | 1.0 | 0.03 | 0.28 | 0.28 | 86 | 1017.6 |
| 20260906020028 | 59 | 270 | 0.0 | 0.0 | 0.04 | 0.28 | 0.28 | 86 | 1017.5 |
| 20260906013927 | 59 | 337 | 0.0 | 0.0 | 0.05 | 0.25 | 0.25 | 87 | 1017.5 |
| 20260906012944 | 59 | 360 | 0.0 | 1.0 | 0.09 | 0.25 | 0.25 | 88 | 1017.5 |
| 20260906011930 | 59 | 360 | 0.0 | 0.0 | 0.12 | 0.25 | 0.25 | 87 | 1017.6 |
| 20260906011827 | 59 | 360 | 0.0 | 0.0 | 0.13 | 0.25 | 0.25 | 88 | 1017.5 |
| 20260906010828 | 59 | 360 | 0.0 | 0.0 | 0.16 | 0.25 | 0.25 | 88 | 1017.5 |
| 20260906010729 | 59 | 360 | 0.0 | 0.0 | 0.17 | 0.25 | 0.25 | 88 | 1017.4 |
| 20260906005826 | 59 | 177 | 0.0 | 2.0 | 0.18 | 0.24 | 0.24 | 89 | 1017.4 |
| 20260906004828 | 60 | 360 | 0.0 | 0.0 | 0.18 | 0.22 | 0.22 | 89 | 1017.4 |
| 20260906003829 | 60 | 337 | 0.0 | 2.0 | 0.16 | 0.20 | 0.19 | 88 | 1017.1 |
| 20260906003746 | 60 | 337 | 2.0 | 4.0 | 0.15 | 0.19 | 0.19 | 89 | 1017.2 |
| 20260906000927 | 61 | 112 | 0.0 | 0.0 | 0.05 | 0.09 | 0.09 | 89 | 1016.8 |
| 20260906000830 | 61 | 112 | 0.0 | 0.0 | 0.05 | 0.09 | 0.08 | 89 | 1016.9 |
| 20260905235828 | 62 | 174 | 0.0 | 0.0 | 0.02 | 0.06 | 0.05 | 88 | 1016.6 |
| 20260905233844 | 62 | 180 | 0.0 | 0.0 | 0.00 | 0.04 | 0.04 | 88 | 1016.3 |
| 20260905232842 | 62 | 180 | 0.0 | 0.0 | 0.00 | 0.04 | 0.04 | 88 | 1016.2 |
| 20260905231828 | 62 | 180 | 0.0 | 0.0 | 0.00 | 0.04 | 0.04 | 86 | 1016.2 |
| 20260905230927 | 62 | 157 | 0.0 | 0.0 | 0.00 | 0.04 | 0.04 | 87 | 1016.1 |
| 20260905225929 | 63 | 157 | 0.0 | 0.0 | 0.00 | 0.04 | 0.04 | 86 | 1016.1 |
| 20260905225831 | 63 | 157 | 0.0 | 0.0 | 0.00 | 0.04 | 0.04 | 85 | 1016.0 |
| 20260905224828 | 64 | 157 | 0.0 | 1.0 | 0.00 | 0.04 | 0.04 | 85 | 1016.0 |
| 20260905224729 | 64 | 157 | 0.0 | 1.0 | 0.00 | 0.04 | 0.04 | 84 | 1016.0 |
| 20260905221827 | 66 | 145 | 3.0 | 7.0 | 0.00 | 0.04 | 0.04 | 78 | 1015.5 |
| 20260905220827 | 68 | 112 | 0.0 | 1.0 | 0.00 | 0.04 | 0.04 | 73 | 1015.4 |
| 20260905215829 | 70 | 337 | 0.0 | 2.0 | 0.00 | 0.04 | 0.04 | 71 | 1015.1 |
| 20260905214927 | 70 | 282 | 0.0 | 1.0 | 0.00 | 0.04 | 0.04 | 71 | 1014.8 |
| 20260905213928 | 70 | 360 | 0.0 | 0.0 | 0.00 | 0.04 | 0.04 | 71 | 1014.8 |
| 20260905212929 | 71 | 325 | 4.0 | 6.0 | 0.00 | 0.04 | 0.04 | 74 | 1014.5 |
| 20260905211945 | 70 | 22 | 1.0 | 2.0 | 0.00 | 0.04 | 0.04 | 78 | 1014.5 |
| 20260905210926 | 69 | 337 | 1.0 | 2.0 | 0.00 | 0.04 | 0.04 | 81 | 1014.5 |
| 20260905205928 | 68 | 307 | 0.0 | 2.0 | 0.01 | 0.04 | 0.04 | 83 | 1014.5 |
| 20260905203929 | 65 | 337 | 0.0 | 0.0 | 0.01 | 0.04 | 0.04 | 86 | 1014.6 |
| 20260905203845 | 65 | 337 | 0.0 | 0.0 | 0.01 | 0.04 | 0.04 | 85 | 1014.6 |
| 20260905202929 | 65 | 337 | 0.0 | 0.0 | 0.01 | 0.04 | 0.04 | 84 | 1014.5 |
| 20260905201928 | 66 | 337 | 0.0 | 0.0 | 0.01 | 0.04 | 0.04 | 82 | 1014.5 |
| 20260905200027 | 68 | 180 | 0.0 | 2.0 | 0.03 | 0.03 | 0.03 | 80 | 1014.1 |
| 20260905195027 | 68 | 112 | 0.0 | 0.0 | 0.03 | 0.03 | 0.03 | 84 | 1014.1 |
| 20260905194026 | 68 | 180 | 0.0 | 0.0 | 0.03 | 0.03 | 0.03 | 80 | 1014.1 |
| 20260905193044 | 69 | 180 | 0.0 | 0.0 | 0.03 | 0.03 | 0.03 | 77 | 1014.1 |
| 20260905192928 | 69 | 180 | 0.0 | 0.0 | 0.03 | 0.03 | 0.03 | 76 | 1014.1 |
| 20260905191929 | 71 | 180 | 0.0 | 0.0 | 0.03 | 0.03 | 0.03 | 69 | 1014.0 |
| 20260905185928 | 72 | 22 | 0.0 | 0.0 | 0.00 | 0.00 | 0.00 | 64 | 1013.8 |
| 20260905181126 | 70 | 337 | 0.0 | 0.0 | 0.00 | 0.00 | 0.00 | 70 | 1013.9 |
| 20260905180128 | 70 | 22 | 1.0 | 2.0 | 0.00 | 0.00 | 0.00 | 69 | 1013.9 |
| 20260905175128 | 70 | 180 | 2.0 | 2.0 | 0.00 | 0.00 | 0.00 | 64 | 1013.8 |
| 20260905175026 | 70 | 180 | 2.0 | 3.0 | 0.00 | 0.00 | 0.00 | 64 | 1013.8 |
| 20260905174026 | 74 | 180 | 3.0 | 5.0 | 0.00 | 0.00 | 0.00 | 59 | 1013.8 |
| 20260905173927 | 74 | 350 | 1.0 | 5.0 | 0.00 | 0.00 | 0.00 | 59 | 1013.7 |
| 20260905173844 | 74 | 3 | 3.0 | 9.0 | 0.00 | 0.00 | 0.00 | 59 | 1013.7 |
| 20260905171926 | 71 | 165 | 0.0 | 1.0 | 0.00 | 0.00 | 0.00 | 62 | 1013.6 |
| 20260905170928 | 72 | 180 | 2.0 | 4.0 | 0.00 | 0.00 | 0.00 | 61 | 1013.5 |
| 20260905165943 | 72 | 360 | 0.0 | 0.0 | 0.00 | 0.00 | 0.00 | 63 | 1013.5 |
| 20260905165828 | 71 | 360 | 0.0 | 0.0 | 0.00 | 0.00 | 0.00 | 62 | 1013.6 |
| 20260905164844 | 71 | 180 | 0.0 | 2.0 | 0.00 | 0.00 | 0.00 | 64 | 1013.6 |
| 20260905164728 | 71 | 180 | 0.0 | 2.0 | 0.00 | 0.00 | 0.00 | 64 | 1013.6 |
| 20260905163826 | 71 | 261 | 0.0 | 1.0 | 0.00 | 0.00 | 0.00 | 65 | 1013.9 |
| 20260905163743 | 71 | 340 | 0.0 | 2.0 | 0.00 | 0.00 | 0.00 | 65 | 1013.8 |
| 20260905162827 | 71 | 360 | 0.0 | 1.0 | 0.00 | 0.00 | 0.00 | 63 | 1013.9 |
| 20260905160829 | 70 | 180 | 1.0 | 2.0 | 0.00 | 0.00 | 0.00 | 68 | 1013.9 |
| 20260905155828 | 69 | 180 | 1.0 | 3.0 | 0.00 | 0.00 | 0.00 | 69 | 1014.0 |
| 20260905154829 | 69 | 180 | 0.0 | 1.0 | 0.00 | 0.00 | 0.00 | 67 | 1014.1 |
| 20260905153927 | 69 | 22 | 1.0 | 2.0 | 0.00 | 0.00 | 0.00 | 68 | 1014.0 |
| 20260905152926 | 70 | 180 | 0.0 | 2.0 | 0.00 | 0.00 | 0.00 | 67 | 1014.1 |
| 20260905150926 | 71 | 357 | 0.0 | 2.0 | 0.00 | 0.00 | 0.00 | 66 | 1014.1 |
| 20260905145926 | 70 | 323 | 3.0 | 6.0 | 0.00 | 0.00 | 0.00 | 68 | 1013.9 |